Volver al catálogo

STARLINK-30509

ActivoComunicacionesVLEO
NORAD 57977·PAYLOAD·🇺🇸 United States

Lanzado Sep 30, 2023 desde Cape Canaveral Space Force Station

Loading…

Próximos Pases (próximas 24 horas)

TLE

ActualizadoSource: CelesTrak SupGP

Época: Sep 14, 2026, 22:09 UTC

1 57977C 23151P   26257.92340278 -.00083080  00000+0 -30081-2 0  2575
2 57977  43.0023   1.9837 0001507 267.5410 118.9869 15.27631610    10

Sigue STARLINK-30509 en tiempo real con AllMySat

Download on the App Store